Cairns, Australia

7:58 AM AEST on July 25, 2017 (GMT +1000)
Cairns International

Weather History for YBCS - June, 2013

Change the Weather History Date:

Wednesday, June 19, 2013

  Actual Average Record
Temperature  
Mean Temperature 71 °F -  
Max Temperature 79 °F 78 °F 82 °F (2015)
Min Temperature 63 °F 63 °F 50 °F (2004)
Cooling Degree Days 6    
Growing Degree Days 21 (Base 50)    
Moisture  
Dew Point 62 °F    
Average Humidity 70    
Maximum Humidity 94    
Minimum Humidity 43    
Precipitation  
Precipitation 0.00 in 0.05 in - ()
Sea Level Pressure  
Sea Level Pressure 29.96 in    
Wind  
Wind Speed 9 mph ()    
Max Wind Speed 15 mph    
Max Gust Speed -    
Visibility 7.6 miles    
Events      
Averages and records for this station are not official NWS values.
T = Trace of Precipitation, MM = Missing Value Source: Averaged Metar Reports

Daily Weather History Graph

Daily Weather History Graph

Search for Another Location

Airport or City:

Trip Planner

Search our weather history database for the weather conditions in past years. The results will help you decide how hot, cold, wet, or windy it might be!

Date:

Astronomy

Jun. 19, 2013 Rise Set
Actual Time 6:44 AM AEST 5:51 PM AEST
Civil Twilight 6:21 AM AEST 6:15 PM AEST
Nautical Twilight 5:54 AM AEST 6:42 PM AEST
Astronomical Twilight 5:27 AM AEST 7:09 PM AEST
Moon 1:56 PM AEST (6/19) 1:57 AM AEST (6/19)
Length of Visible Light 11h 54m
Length of Day
11h 07m
Waxing Gibbous, 74% of the Moon is Illuminated
Jun 19
Waxing Gibbous
Jun 23
Full
Jun 30
Last Quarter
Jul 8
New
Jul 16
First Quarter

Hourly Weather History & Observations

Time (AEST) Temp. Dew Point Humidity Pressure Visibility Wind Dir Wind Speed Gust Speed Precip Events Conditions
12:00 AM 70 °F 62 °F 69% 29.96 in - SSW 8.1 mph - -  
12:00 AM 69.8 °F 62.6 °F 78% 29.95 in - SSW 8.1 mph - N/A   Clear
12:30 AM 68.0 °F 62.6 °F 83% 29.95 in - SE 9.2 mph - N/A   Clear
1:00 AM 68 °F 62 °F 74% 29.97 in - SSE 10.4 mph - -  
1:00 AM 68.0 °F 62.6 °F 83% 29.95 in - SSE 10.4 mph - N/A   Clear
1:30 AM 68.0 °F 62.6 °F 83% 29.95 in - SSE 8.1 mph - N/A   Clear
2:00 AM 66.2 °F 62.6 °F 88% 29.95 in - NW 3.5 mph - N/A   Clear
2:30 AM 64.4 °F 62.6 °F 94% 29.95 in - Calm Calm - N/A   Clear
3:00 AM 66 °F 61 °F 80% 29.94 in - SSE 11.5 mph - -  
3:00 AM 66.2 °F 60.8 °F 83% 29.92 in - SSE 11.5 mph - N/A   Clear
3:30 AM 66.2 °F 62.6 °F 88% 29.95 in - SSE 12.7 mph - N/A   Clear
4:00 AM 66 °F 61 °F 80% 29.95 in - SSE 8.1 mph - -  
4:00 AM 66.2 °F 60.8 °F 83% 29.95 in - SSE 8.1 mph - N/A   Clear
4:30 AM 66.2 °F 60.8 °F 83% 29.92 in - SSE 10.4 mph - N/A   Clear
5:00 AM 64.4 °F 60.8 °F 88% 29.95 in - SSE 9.2 mph - N/A   Clear
5:30 AM 64.4 °F 60.8 °F 88% 29.95 in - SE 10.4 mph - N/A   Clear
6:00 AM 64 °F 61 °F 85% 29.96 in 19 mi South 6.9 mph - -   Partly Cloudy
6:00 AM 64.4 °F 60.8 °F 88% 29.95 in - South 6.9 mph - N/A   Clear
6:30 AM 64.4 °F 60.8 °F 88% 29.95 in - SSE 10.4 mph - N/A   Clear
7:00 AM 65 °F 60 °F 81% 29.97 in - SSE 12.7 mph - -  
7:00 AM 64.4 °F 60.8 °F 88% 29.95 in - SSE 12.7 mph - N/A   Clear
7:30 AM 66.2 °F 60.8 °F 83% 29.98 in - SSE 12.7 mph - N/A   Clear
8:00 AM 68.0 °F 60.8 °F 78% 29.98 in 6.2 mi SE 11.5 mph - N/A   Scattered Clouds
8:30 AM 69.8 °F 60.8 °F 73% 29.98 in 6.2 mi SE 11.5 mph - N/A   Scattered Clouds
9:00 AM 73 °F 61 °F 56% 30.00 in 19 mi SE 11.5 mph - -   Partly Cloudy
9:00 AM 73.4 °F 60.8 °F 65% 30.01 in 6.2 mi SE 11.5 mph - N/A   Scattered Clouds
9:30 AM 75.2 °F 55.4 °F 50% 30.01 in 6.2 mi South 9.2 mph - N/A   Scattered Clouds
10:00 AM 76 °F 58 °F 43% 30.01 in - South 9.2 mph - -  
10:00 AM 77.0 °F 57.2 °F 50% 30.01 in 6.2 mi South 9.2 mph - N/A   Partly Cloudy
10:30 AM 77.0 °F 60.8 °F 57% 29.98 in 6.2 mi South 9.2 mph - N/A   Partly Cloudy
11:00 AM 77.0 °F 60.8 °F 57% 29.98 in 6.2 mi South 10.4 mph - N/A   Partly Cloudy
11:30 AM 78.8 °F 62.6 °F 57% 29.98 in 6.2 mi SE 9.2 mph - N/A   Partly Cloudy
12:00 PM 79 °F 62 °F 46% 29.97 in 19 mi ESE 12.7 mph - -   Partly Cloudy
12:00 PM 78.8 °F 62.6 °F 57% 29.95 in 6.2 mi ESE 12.7 mph - N/A   Scattered Clouds
12:30 PM 78.8 °F 62.6 °F 57% 29.95 in 6.2 mi SE 12.7 mph - N/A   Partly Cloudy
1:00 PM 79 °F 61 °F 45% 29.95 in - SE 11.5 mph - -  
1:00 PM 78.8 °F 60.8 °F 54% 29.92 in 6.2 mi SE 11.5 mph - N/A   Partly Cloudy
1:30 PM 78.8 °F 62.6 °F 57% 29.92 in 6.2 mi ESE 15.0 mph - N/A   Scattered Clouds
2:00 PM 78.8 °F 60.8 °F 54% 29.92 in 6.2 mi ESE 13.8 mph - N/A   Partly Cloudy
2:30 PM 78.8 °F 60.8 °F 54% 29.92 in 6.2 mi ESE 15.0 mph - N/A   Scattered Clouds
3:00 PM 79 °F 61 °F 44% 29.93 in 19 mi ESE 15.0 mph - -   Partly Cloudy
3:00 PM 78.8 °F 60.8 °F 54% 29.92 in 6.2 mi ESE 15.0 mph - N/A   Scattered Clouds
3:30 PM 77.0 °F 62.6 °F 61% 29.92 in 6.2 mi SE 12.7 mph - N/A   Scattered Clouds
4:00 PM 76 °F 61 °F 51% 29.93 in - SE 15.0 mph - -  
4:00 PM 75.2 °F 60.8 °F 61% 29.92 in 6.2 mi SE 15.0 mph - N/A   Partly Cloudy
4:30 PM 75.2 °F 62.6 °F 65% 29.92 in 6.2 mi SE 13.8 mph - N/A   Partly Cloudy
5:00 PM 75.2 °F 62.6 °F 65% 29.92 in 6.2 mi SSE 10.4 mph - N/A   Partly Cloudy
5:30 PM 73.4 °F 62.6 °F 69% 29.95 in 6.2 mi SSE 10.4 mph - N/A   Partly Cloudy
6:00 PM 72 °F 62 °F 64% 29.96 in - SE 12.7 mph - -  
6:00 PM 73.4 °F 62.6 °F 69% 29.95 in 6.2 mi SE 12.7 mph - N/A   Partly Cloudy
6:30 PM 71.6 °F 62.6 °F 73% 29.98 in 6.2 mi South 8.1 mph - N/A   Mostly Cloudy
7:00 PM 71 °F 62 °F 67% 29.99 in - South 9.2 mph - -  
7:00 PM 71.6 °F 62.6 °F 73% 29.98 in 6.2 mi South 9.2 mph - N/A   Scattered Clouds
7:30 PM 71.6 °F 62.6 °F 73% 29.98 in 6.2 mi South 8.1 mph - N/A   Scattered Clouds
8:00 PM 71.6 °F 62.6 °F 73% 29.98 in 6.2 mi South 8.1 mph - N/A   Partly Cloudy
8:30 PM 71.6 °F 62.6 °F 73% 30.01 in 6.2 mi South 10.4 mph - N/A   Partly Cloudy
9:00 PM 71 °F 62 °F 66% 30.01 in - South 10.4 mph - -  
9:00 PM 71.6 °F 62.6 °F 73% 30.01 in 6.2 mi South 10.4 mph - N/A   Scattered Clouds
9:30 PM 69.8 °F 62.6 °F 78% 30.01 in 6.2 mi South 11.5 mph - N/A   Scattered Clouds
10:00 PM 69 °F 63 °F 75% 30.02 in - South 6.9 mph - -  
10:00 PM 69.8 °F 62.6 °F 78% 30.01 in 6.2 mi South 6.9 mph - N/A   Partly Cloudy
10:30 PM 69.8 °F 62.6 °F 78% 30.01 in 6.2 mi South 8.1 mph - N/A   Partly Cloudy
11:00 PM 69.8 °F 62.6 °F 78% 30.01 in 6.2 mi South 9.2 mph - N/A   Partly Cloudy
11:30 PM 69.8 °F 62.6 °F 78% 30.01 in 6.2 mi South 8.1 mph - N/A   Partly Cloudy